This demonstration page uses our WeatherBlox Daily Observations layout. Learn more.

Left ArrowRight Arrow

Hourly Observations for June 8, 2020

Temp ( °F °C ) Dew Point ( °F °C ) Humidity (%) Winds ( mph kmh ) Pressure ( in mb ) Visibility ( mi km ) Precip ( " mm )
12:56 am 00:56 Clear 81 27.4 70 21.2 69 69 S 15 24 29.74 1007 10 16 0.00 0.00
1:56 am 01:56 Clear 81 27 71 21.5 72 72 S 16 26 29.73 1007 10 16 0.00 0.00
2:56 am 02:56 Clear 80 26.5 71 21.9 76 76 SSE 15 24 29.73 1007 10 16 0.00 0.00
3:56 am 03:56 Clear 78 25.8 71 21.6 78 78 SSE 14 22 29.72 1006 10 16 0.00 0.00
4:56 am 04:56 Clear 78 25.5 70 21.3 78 78 SSE 14 22 29.72 1006 10 16 0.00 0.00
5:56 am 05:56 Sunny 77 25 70 21.1 79 79 SSE 16 26 29.74 1007 10 16 0.00 0.00
6:56 am 06:56 Sunny 78 25.3 70 20.9 77 77 S 15 24 29.75 1007 10 16 0.00 0.00
7:56 am 07:56 Sunny 79 26 70 21.2 75 75 SSE 14 22 29.76 1008 10 16 0.00 0.00
8:56 am 08:56 Sunny 81 27 71 21.7 73 73 S 16 26 29.77 1008 10 16 0.00 0.00
9:56 am 09:56 Sunny 83 28.4 71 21.6 67 67 SSE 22 35 29.76 1008 10 16 0.00 0.00
10:56 am 10:56 Sunny 86 30 70 21.3 60 60 S 21 33 29.74 1007 10 16 0.00 0.00
11:56 am 11:56 Sunny 88 31.3 70 21.1 55 55 S 17 28 29.74 1007 10 16 0.00 0.00
1:56 pm 13:56 Sunny 92 33.4 66 19.1 43 43 S 21 33 29.70 1006 10 16 0.00 0.00
2:56 pm 14:56 Sunny 93 33.8 66 19.1 42 42 SSE 24 39 29.68 1005 10 16 0.00 0.00
3:56 pm 15:56 Partly Cloudy 92 33.5 64 18 40 40 S 20 31 29.67 1005 10 16 0.00 0.00
4:56 pm 16:56 Sunny 92 33.5 65 18.4 41 41 S 16 26 29.66 1004 10 16 0.00 0.00
5:56 pm 17:56 Sunny 91 32.7 66 18.8 44 44 SSE 22 35 29.64 1004 10 16 0.00 0.00
6:56 pm 18:56 Sunny 89 31.9 67 19.5 48 48 SSE 18 30 29.63 1003 10 16 0.00 0.00
7:56 pm 19:56 Sunny 87 30.6 64 18 47 47 SE 15 24 29.62 1003 10 16 0.00 0.00
8:56 pm 20:56 Clear 83 28.3 65 18.1 54 54 SE 9 15 29.61 1003 10 16 0.00 0.00
9:56 pm 21:56 Clear 80 26.5 64 17.8 59 59 ESE 13 20 29.61 1003 10 16 0.00 0.00
10:56 pm 22:56 Clear 80 26.4 64 17.7 59 59 ESE 15 24 29.61 1003 10 16 0.00 0.00
11:56 pm 23:56 Clear 78 25.3 62 16.4 58 58 SSE 9 15 29.62 1003 10 16 0.00 0.00

Powered by AerisWeather